Year,Month,Day,Hour,Minute,Value (Times are PST for barometer in hPa)
2017,12,03,00,00,1009.60
2017,12,03,00,01,1009.60
2017,12,03,00,02,1009.60
2017,12,03,00,03,1009.60
2017,12,03,00,04,1009.60
2017,12,03,00,05,1009.60
2017,12,03,00,06,1009.60
2017,12,03,00,07,1009.60
2017,12,03,00,08,1009.60
2017,12,03,00,09,1009.60
2017,12,03,00,10,1009.60
2017,12,03,00,11,1009.60
2017,12,03,00,12,1009.60
2017,12,03,00,13,1009.60
2017,12,03,00,14,1009.60
2017,12,03,00,15,1009.60
2017,12,03,00,16,1009.60
2017,12,03,00,17,1009.70
2017,12,03,00,18,1009.70
2017,12,03,00,19,1009.70
2017,12,03,00,20,1009.70
2017,12,03,00,21,1009.70
2017,12,03,00,22,1009.70
2017,12,03,00,23,1009.70
2017,12,03,00,24,1009.70
2017,12,03,00,25,1009.70
2017,12,03,00,26,1009.70
2017,12,03,00,27,1009.70
2017,12,03,00,28,1009.70
2017,12,03,00,29,1009.80
2017,12,03,00,30,1009.80
2017,12,03,00,31,1009.80
2017,12,03,00,32,1009.80
2017,12,03,00,33,1009.90
2017,12,03,00,34,1009.80
2017,12,03,00,35,1009.90
2017,12,03,00,36,1009.90
2017,12,03,00,37,1009.90
2017,12,03,00,38,1009.90
2017,12,03,00,39,1009.90
2017,12,03,00,40,1009.90
2017,12,03,00,41,1009.90
2017,12,03,00,42,1009.90
2017,12,03,00,44,1009.90
2017,12,03,01,29,1010.30
2017,12,03,01,30,1010.30
2017,12,03,01,31,1010.30
2017,12,03,01,32,1010.30
2017,12,03,01,33,1010.30
2017,12,03,01,34,1010.30
2017,12,03,02,29,1011.20
2017,12,03,02,30,1011.20
2017,12,03,02,31,1011.20
2017,12,03,02,32,1011.30
2017,12,03,02,33,1011.30
2017,12,03,02,34,1011.40
2017,12,03,03,29,1012.20
2017,12,03,03,30,1012.20
2017,12,03,03,31,1012.20
2017,12,03,03,32,1012.20
2017,12,03,03,33,1012.20
2017,12,03,03,34,1012.20
2017,12,03,04,29,1012.90
2017,12,03,04,30,1012.90
2017,12,03,04,31,1012.90
2017,12,03,04,32,1012.90
2017,12,03,04,33,1013.00
2017,12,03,04,34,1013.00
2017,12,03,05,29,1013.70
2017,12,03,05,30,1013.80
2017,12,03,05,31,1013.80
2017,12,03,05,32,1013.80
2017,12,03,05,33,1013.80
2017,12,03,05,34,1013.80
2017,12,03,06,29,1014.30
2017,12,03,06,30,1014.30
2017,12,03,06,31,1014.40
2017,12,03,06,32,1014.30
2017,12,03,06,33,1014.40
2017,12,03,06,34,1014.40
2017,12,03,06,35,1014.40
2017,12,03,06,36,1014.40
2017,12,03,06,37,1014.40
2017,12,03,06,38,1014.40
2017,12,03,06,39,1014.50
2017,12,03,06,40,1014.50
2017,12,03,06,41,1014.60
2017,12,03,06,42,1014.60
2017,12,03,06,43,1014.60
2017,12,03,06,44,1014.70
2017,12,03,06,45,1014.70
2017,12,03,06,46,1014.70
2017,12,03,06,47,1014.70
2017,12,03,06,48,1014.70
2017,12,03,06,49,1014.70
2017,12,03,06,50,1014.70
2017,12,03,06,51,1014.70
2017,12,03,06,52,1014.80
2017,12,03,06,53,1014.70
2017,12,03,06,54,1014.80
2017,12,03,06,55,1014.80
2017,12,03,06,56,1014.80
2017,12,03,06,57,1014.80
2017,12,03,06,58,1014.80
2017,12,03,06,59,1014.80
2017,12,03,07,00,1014.80
2017,12,03,07,01,1014.80
2017,12,03,07,02,1014.80
2017,12,03,07,03,1014.80
2017,12,03,07,04,1014.80
2017,12,03,07,05,1014.80
2017,12,03,07,06,1014.80
2017,12,03,07,07,1014.90
2017,12,03,07,08,1014.90
2017,12,03,07,09,1014.90
2017,12,03,07,10,1014.90
2017,12,03,07,11,1015.00
2017,12,03,07,12,1015.00
2017,12,03,07,13,1015.00
2017,12,03,07,14,1015.00
2017,12,03,07,15,1015.10
2017,12,03,07,16,1015.00
2017,12,03,07,17,1015.00
2017,12,03,07,18,1015.10
2017,12,03,07,19,1015.00
2017,12,03,07,20,1015.10
2017,12,03,07,21,1015.10
2017,12,03,07,22,1015.10
2017,12,03,07,23,1015.10
2017,12,03,07,24,1015.10
2017,12,03,07,25,1015.20
2017,12,03,07,26,1015.20
2017,12,03,07,27,1015.20
2017,12,03,07,28,1015.20
2017,12,03,07,29,1015.20
2017,12,03,07,31,1015.20
2017,12,03,07,32,1015.20
2017,12,03,07,33,1015.20
2017,12,03,07,34,1015.30
2017,12,03,08,29,1016.30
2017,12,03,08,30,1016.30
2017,12,03,08,31,1016.30
2017,12,03,08,32,1016.30
2017,12,03,08,33,1016.30
2017,12,03,08,34,1016.30
2017,12,03,08,35,1016.30
2017,12,03,08,36,1016.30
2017,12,03,08,37,1016.40
2017,12,03,08,38,1016.40
2017,12,03,08,39,1016.40
2017,12,03,08,40,1016.40
2017,12,03,08,41,1016.40
2017,12,03,08,42,1016.40
2017,12,03,08,43,1016.40
2017,12,03,08,44,1016.40
2017,12,03,08,45,1016.40
2017,12,03,08,46,1016.50
2017,12,03,08,47,1016.50
2017,12,03,08,48,1016.50
2017,12,03,08,49,1016.60
2017,12,03,08,50,1016.60
2017,12,03,08,51,1016.60
2017,12,03,08,52,1016.60
2017,12,03,08,53,1016.60
2017,12,03,08,54,1016.60
2017,12,03,08,55,1016.60
2017,12,03,08,56,1016.70
2017,12,03,08,57,1016.70
2017,12,03,08,58,1016.80
2017,12,03,08,59,1016.80
2017,12,03,09,00,1016.80
2017,12,03,09,01,1016.80
2017,12,03,09,02,1016.80
2017,12,03,09,03,1016.80
2017,12,03,09,04,1016.80
2017,12,03,09,05,1016.80
2017,12,03,09,06,1016.90
2017,12,03,09,07,1016.90
2017,12,03,09,08,1016.90
2017,12,03,09,09,1016.90
2017,12,03,09,10,1016.90
2017,12,03,09,11,1016.90
2017,12,03,09,12,1016.90
2017,12,03,09,13,1017.00
2017,12,03,09,14,1017.00
2017,12,03,09,15,1017.00
2017,12,03,09,16,1017.00
2017,12,03,09,17,1017.00
2017,12,03,09,18,1017.10
2017,12,03,09,19,1017.00
2017,12,03,09,20,1017.00
2017,12,03,09,21,1017.10
2017,12,03,09,22,1017.00
2017,12,03,09,23,1017.00
2017,12,03,09,24,1017.10
2017,12,03,09,25,1017.10
2017,12,03,09,26,1017.10
2017,12,03,09,27,1017.10
2017,12,03,09,28,1017.10
2017,12,03,09,29,1017.10
2017,12,03,09,30,1017.10
2017,12,03,09,31,1017.10
2017,12,03,09,32,1017.10
2017,12,03,09,33,1017.20
2017,12,03,09,34,1017.30
2017,12,03,09,36,1017.30
2017,12,03,09,37,1017.30
2017,12,03,09,38,1017.40
2017,12,03,09,39,1017.40
2017,12,03,10,29,1018.50
2017,12,03,10,30,1018.50
2017,12,03,10,31,1018.50
2017,12,03,10,32,1018.50
2017,12,03,10,33,1018.50
2017,12,03,10,34,1018.50
2017,12,03,11,29,1019.40
2017,12,03,11,30,1019.40
2017,12,03,11,31,1019.40
2017,12,03,11,32,1019.40
2017,12,03,11,33,1019.40
2017,12,03,11,34,1019.40
2017,12,03,12,29,1019.60
2017,12,03,12,30,1019.60
2017,12,03,12,31,1019.70
2017,12,03,12,32,1019.60
2017,12,03,12,33,1019.60
2017,12,03,12,34,1019.60
2017,12,03,13,29,1019.80
2017,12,03,13,30,1019.80
2017,12,03,13,31,1019.80
2017,12,03,13,32,1019.90
2017,12,03,13,33,1019.90
2017,12,03,13,34,1019.90
2017,12,03,13,35,1020.00
2017,12,03,13,36,1020.00
2017,12,03,13,37,1020.00
2017,12,03,13,38,1020.00
2017,12,03,13,39,1020.00
2017,12,03,13,40,1020.00
2017,12,03,13,41,1020.00
2017,12,03,13,42,1020.00
2017,12,03,13,43,1020.00
2017,12,03,13,44,1020.10
2017,12,03,13,45,1020.10
2017,12,03,13,46,1020.20
2017,12,03,13,47,1020.20
2017,12,03,13,48,1020.20
2017,12,03,13,49,1020.20
2017,12,03,13,50,1020.20
2017,12,03,13,51,1020.30
2017,12,03,13,52,1020.30
2017,12,03,13,53,1020.30
2017,12,03,13,54,1020.30
2017,12,03,13,55,1020.40
2017,12,03,13,56,1020.40
2017,12,03,13,57,1020.50
2017,12,03,13,58,1020.50
2017,12,03,13,59,1020.50
2017,12,03,14,00,1020.50
2017,12,03,14,01,1020.50
2017,12,03,14,02,1020.50
2017,12,03,14,03,1020.50
2017,12,03,14,04,1020.50
2017,12,03,14,05,1020.60
2017,12,03,14,06,1020.60
2017,12,03,14,07,1020.60
2017,12,03,14,08,1020.60
2017,12,03,14,09,1020.60
2017,12,03,14,10,1020.70
2017,12,03,14,11,1020.70
2017,12,03,14,12,1020.70
2017,12,03,14,13,1020.70
2017,12,03,14,14,1020.80
2017,12,03,14,15,1020.80
2017,12,03,14,16,1020.80
2017,12,03,14,17,1020.90
2017,12,03,14,18,1020.90
2017,12,03,14,19,1021.00
2017,12,03,14,20,1021.00
2017,12,03,14,21,1021.00
2017,12,03,14,22,1021.00
2017,12,03,14,23,1021.00
2017,12,03,14,24,1021.00
2017,12,03,14,25,1021.00
2017,12,03,14,26,1021.00
2017,12,03,14,27,1021.00
2017,12,03,14,28,1021.00
2017,12,03,14,29,1021.00
2017,12,03,14,30,1021.00
2017,12,03,14,31,1021.00
2017,12,03,14,32,1021.00
2017,12,03,14,33,1021.00
2017,12,03,14,34,1021.00
2017,12,03,14,35,1021.00
2017,12,03,14,37,1021.10
2017,12,03,14,38,1021.10
2017,12,03,14,39,1021.10
2017,12,03,15,29,1022.10
2017,12,03,16,29,1022.60
2017,12,03,16,30,1022.60
2017,12,03,16,31,1022.60
2017,12,03,16,32,1022.60
2017,12,03,16,33,1022.60
2017,12,03,16,34,1022.50
2017,12,03,17,29,1022.90
2017,12,03,18,29,1023.60
2017,12,03,18,30,1023.60
2017,12,03,18,31,1023.60
2017,12,03,18,32,1023.60
2017,12,03,18,33,1023.70
2017,12,03,18,34,1023.70
2017,12,03,19,29,1024.60
2017,12,03,19,30,1024.70
2017,12,03,19,31,1024.70
2017,12,03,19,32,1024.70
2017,12,03,19,33,1024.70
2017,12,03,19,34,1024.70
2017,12,03,20,29,1025.40
2017,12,03,20,30,1025.40
2017,12,03,20,31,1025.40
2017,12,03,20,32,1025.40
2017,12,03,20,33,1025.50
2017,12,03,20,34,1025.50
2017,12,03,21,29,1026.30
2017,12,03,21,30,1026.30
2017,12,03,21,31,1026.40
2017,12,03,21,32,1026.40
2017,12,03,21,33,1026.40
2017,12,03,21,34,1026.40
2017,12,03,22,29,1027.30
2017,12,03,22,30,1027.30
2017,12,03,22,31,1027.30
2017,12,03,22,32,1027.30
2017,12,03,22,33,1027.30
2017,12,03,22,34,1027.30
2017,12,03,23,29,1028.20
2017,12,03,23,30,1028.20
2017,12,03,23,31,1028.20
2017,12,03,23,32,1028.30
2017,12,03,23,33,1028.20
2017,12,03,23,34,1028.30
